Weather reports worldwide

Advertisment
Edinburgh/Gogarbank, United Kingdom (3166): temperature & dewpoint: 15.06.2018 22:00:00 - 21.06.2018 22:00:00 (BST)Edinburgh/Gogarbank, United Kingdom (3166): temperature -20cm & temperature -100cm: 15.06.2018 22:00:00 - 21.06.2018 22:00:00 (BST)Edinburgh/Gogarbank, United Kingdom (3166): wind speed & gusts: 15.06.2018 22:00:00 - 21.06.2018 22:00:00 (BST)Edinburgh/Gogarbank, United Kingdom (3166): wind direction: 15.06.2018 22:00:00 - 21.06.2018 22:00:00 (BST)Edinburgh/Gogarbank, United Kingdom (3166): reduced air pressure: 15.06.2018 22:00:00 - 21.06.2018 22:00:00 (BST)Edinburgh/Gogarbank, United Kingdom (3166): visibility: 15.06.2018 22:00:00 - 21.06.2018 22:00:00 (BST)Edinburgh/Gogarbank, United Kingdom (3166): sunshine duration: 15.06.2018 22:00:00 - 21.06.2018 22:00:00 (BST)Edinburgh/Gogarbank, United Kingdom (3166): precipitation: 15.06.2018 22:00:00 - 21.06.2018 22:00:00 (BST)
Date & Time tt [°C] td [°C] tt -20cm [°C] tt -100cm [°C] ff [km/h] ff [kn] fx [km/h] fx [kn] dd ppp [hPa] vv [km] sd [min] rr [mm]
21.06.2018 22:00:00 12,5 5,5 - - 15 8 - - W 1029,3 40 48 0,0
21.06.2018 21:00:00 14,7 5,3 - - 15 8 - - W 1028,7 50 60 0,0
21.06.2018 20:00:00 15,8 5,3 - - 22 12 - - WNW 1028,2 50 60 0,0
21.06.2018 19:00:00 17,1 6,4 - - 21 11 - - WNW 1027,7 40 42 0,0
21.06.2018 18:00:00 16,2 5,0 - - 24 13 - - WNW 1027,3 45 36 0,0
21.06.2018 17:00:00 18,0 6,6 - - 22 12 - - WNW 1027,1 40 60 0,0
21.06.2018 16:00:00 17,1 5,5 - - 26 14 46 25 WNW 1026,5 50 60 0,0
21.06.2018 15:00:00 16,8 5,6 - - 24 13 - - WNW 1026,3 45 24 0,0
21.06.2018 14:00:00 14,9 4,0 - - 18 10 - - W 1026,3 55 42 0,0
21.06.2018 13:00:00 14,1 3,8 - - 24 13 - - WNW 1025,8 60 30 0,0
21.06.2018 12:00:00 14,6 3,8 - - 24 13 - - W 1025,6 55 54 0,0
21.06.2018 11:00:00 12,9 4,1 - - 18 10 - - WNW 1025,2 45 42 0,0
21.06.2018 10:00:00 13,3 6,1 14,0 13,0 22 12 - - W 1024,9 45 54 0,0
21.06.2018 09:00:00 12,3 4,8 - - 21 11 - - WNW 1024,2 45 60 0,0
21.06.2018 08:00:00 11,0 5,2 - - 15 8 - - W 1023,6 45 60 0,0
21.06.2018 07:00:00 9,3 5,3 - - 15 8 - - WSW 1023,2 40 42 0,0
21.06.2018 06:00:00 7,6 4,7 - - 15 8 - - WSW 1022,5 35 36 0,0
21.06.2018 05:00:00 6,5 4,5 - - 13 7 - - WSW 1021,6 35 0 0,0
21.06.2018 04:00:00 6,6 4,3 - - 13 7 - - WSW 1020,8 35 0 0,0
21.06.2018 03:00:00 7,1 4,5 - - 13 7 - - SW 1019,9 35 0 0,0
21.06.2018 02:00:00 7,9 5,1 - - 18 10 - - W 1018,8 30 0 0,0
21.06.2018 01:00:00 8,1 5,7 - - 16 9 - - WSW 1018,2 28 - 0,0
21.06.2018 00:00:00 9,2 5,8 - - 15 8 - - W 1018,0 24 0 0,0
20.06.2018 23:00:00 10,0 6,7 - - 21 11 - - WSW 1017,5 35 0 0,0
20.06.2018 22:00:00 10,1 6,4 - - 18 10 - - WSW 1017,7 40 0 0,0
20.06.2018 21:00:00 11,3 5,0 - - 24 13 - - W 1017,3 40 30 0,0
20.06.2018 20:00:00 12,0 6,2 - - 24 13 - - W 1017,5 30 0 0,0
20.06.2018 19:00:00 13,1 4,8 - - 18 10 - - W 1017,2 50 0 0,0
20.06.2018 18:00:00 13,3 4,3 - - 26 14 - - W 1017,3 45 0 0,0
20.06.2018 17:00:00 14,3 5,7 - - 24 13 - - W 1017,1 45 0 0,0
20.06.2018 16:00:00 15,2 6,0 - - 15 8 - - W 1016,5 50 6 0,0
20.06.2018 15:00:00 15,2 8,2 - - 16 9 - - WNW 1016,5 60 0 0,0
20.06.2018 14:00:00 15,2 9,2 - - 16 9 - - WNW 1015,9 50 0 0,0
20.06.2018 13:00:00 13,2 9,3 - - 15 8 - - WNW 1015,6 60 0 0,0
20.06.2018 12:00:00 12,6 10,9 - - 5 3 - - W 1014,8 50 0 0,0
20.06.2018 11:00:00 12,3 10,5 - - 9 5 - - W 1013,9 50 0 0,0
20.06.2018 10:00:00 11,4 10,4 14,2 13,0 8 4 - - WNW 1012,8 60 0 0,0
20.06.2018 09:00:00 10,5 10,4 - - 5 3 - - WNW 1011,8 8 0 0,0
20.06.2018 08:00:00 10,3 10,3 - - 9 5 - - NNW 1010,7 13 0 2,6
20.06.2018 07:00:00 10,2 10,2 - - 8 4 - - N 1009,0 2,2 0 0,6
20.06.2018 06:00:00 10,1 10,1 - - 5 3 - - NNE 1008,6 1,5 0 0,8
20.06.2018 05:00:00 10,2 10,2 - - 5 3 - - NNE 1008,9 3,4 0 0,6
20.06.2018 04:00:00 10,2 10,2 - - 9 5 - - E 1009,2 7 0 4,2
20.06.2018 03:00:00 10,3 10,3 - - 9 5 - - N 1010,1 2,4 0 5,8
20.06.2018 02:00:00 10,3 10,3 - - 8 4 - - E 1010,9 15 0 3,4
20.06.2018 01:00:00 10,3 10,2 - - 11 6 - - ENE 1012,0 4,5 - 8,4
20.06.2018 00:00:00 10,5 10,5 - - 9 5 - - ENE 1012,5 2,7 0 3,4
19.06.2018 23:00:00 10,6 10,3 - - 5 3 - - NE 1014,1 2,3 0 3,2
19.06.2018 22:00:00 11,0 9,9 - - 2 1 - - ENE 1014,0 2,8 0 0,8
19.06.2018 21:00:00 11,8 8,7 - - 5 3 - - S 1015,2 23 0 0,0
19.06.2018 20:00:00 13,1 8,7 - - 5 3 - - SW 1016,1 30 0 0,0
19.06.2018 19:00:00 13,9 7,7 - - 5 3 - - WSW 1016,1 35 0 0,0
19.06.2018 18:00:00 14,6 5,4 - - 11 6 - - W 1016,8 35 0 0,0
19.06.2018 17:00:00 15,4 5,3 - - 16 9 - - W 1017,3 40 6 0,0
19.06.2018 16:00:00 16,5 5,2 - - 21 11 - - W 1017,6 40 30 0,0
19.06.2018 15:00:00 14,8 6,2 - - 22 12 - - WSW 1018,1 35 0 0,0
19.06.2018 14:00:00 13,9 5,4 - - 24 13 - - W 1018,1 35 0 0,0
19.06.2018 13:00:00 - - - - - - - - - - - 0 0,0
19.06.2018 12:00:00 - - - - - - - - - - 29 0 0,0
19.06.2018 11:00:00 12,7 6,8 - - 18 10 - - W 1018,2 24 0 0,0
19.06.2018 10:00:00 11,9 6,5 14,4 13,2 21 11 - - W 1017,8 24 0 0,0
19.06.2018 09:00:00 12,5 6,1 - - 28 15 - - WSW 1017,4 26 36 0,0
19.06.2018 08:00:00 11,5 6,8 - - 16 9 - - WSW 1017,2 22 6 0,0
19.06.2018 07:00:00 10,3 6,5 - - 15 8 - - SW 1016,8 22 24 0,0
19.06.2018 06:00:00 9,3 6,2 - - 24 13 - - WSW 1016,1 20 12 0,0
19.06.2018 05:00:00 8,9 5,2 - - 24 13 - - WSW 1015,6 22 0 0,0
19.06.2018 04:00:00 9,1 5,3 - - 22 12 - - WSW 1015,4 21 0 0,0
19.06.2018 03:00:00 9,4 5,7 - - 18 10 - - WSW 1015,3 21 0 0,0
19.06.2018 02:00:00 9,7 5,4 - - 24 13 - - WSW 1014,6 22 0 0,0
19.06.2018 01:00:00 9,7 6,3 - - 21 11 - - WSW 1014,4 21 - 0,0
19.06.2018 00:00:00 9,8 6,5 - - 13 7 - - W 1014,1 21 0 0,0
18.06.2018 23:00:00 10,8 5,7 - - 18 10 - - W 1013,4 25 0 0,0
18.06.2018 22:00:00 11,7 6,1 - - 28 15 55 30 W 1012,9 28 6 0,0
18.06.2018 21:00:00 12,5 7,6 - - 24 13 - - WSW 1011,8 25 24 0,0
18.06.2018 20:00:00 12,3 8,7 - - 22 12 - - WSW 1011,4 24 0 0,0
18.06.2018 19:00:00 13,9 9,0 - - 28 15 46 25 W 1010,7 22 0 0,0
18.06.2018 18:00:00 14,6 9,0 - - 26 14 54 29 WSW 1010,7 26 0 0,0
18.06.2018 17:00:00 16,0 8,3 - - 34 18 63 34 W 1010,4 30 30 0,0
18.06.2018 16:00:00 16,9 7,6 - - 29 16 59 32 WSW 1010,5 30 54 0,0
18.06.2018 15:00:00 17,2 7,7 - - 29 16 57 31 WSW 1010,8 30 36 0,0
18.06.2018 14:00:00 16,6 7,6 - - 31 17 52 28 WSW 1010,8 29 36 0,0
18.06.2018 13:00:00 14,8 7,2 - - 31 17 52 28 WSW 1011,3 27 24 0,0
18.06.2018 12:00:00 15,0 7,3 - - 28 15 48 26 WSW 1011,4 25 6 0,0
18.06.2018 11:00:00 13,9 8,4 - - 24 13 48 26 WSW 1011,8 25 6 0,0
18.06.2018 10:00:00 12,9 8,8 14,5 13,2 24 13 52 28 WSW 1011,1 23 0 0,0
18.06.2018 09:00:00 13,2 8,1 - - 26 14 50 27 WSW 1011,0 22 24 0,0
18.06.2018 08:00:00 12,0 8,5 - - 21 11 - - WSW 1010,6 23 0 0,0
18.06.2018 07:00:00 11,6 8,5 - - 22 12 - - SW 1010,3 25 0 0,0
18.06.2018 06:00:00 11,4 8,4 - - 18 10 - - WSW 1010,1 25 0 0,0
18.06.2018 05:00:00 11,2 8,4 - - 22 12 - - WSW 1009,8 26 0 0,0
18.06.2018 04:00:00 11,7 8,8 - - 28 15 46 25 WSW 1009,1 30 0 0,0
18.06.2018 03:00:00 11,3 9,4 - - 16 9 - - WSW 1009,0 28 0 0,0
18.06.2018 02:00:00 11,7 10,0 - - 24 13 50 27 WSW 1009,0 28 0 0,2
18.06.2018 01:00:00 12,9 12,2 - - 18 10 - - WSW 1008,4 6 - 0,0
18.06.2018 00:00:00 13,1 11,7 - - 15 8 - - WSW 1008,3 26 0 0,0
17.06.2018 23:00:00 13,3 12,0 - - 16 9 - - WSW 1008,3 29 0 0,2
17.06.2018 22:00:00 14,4 13,0 - - 13 7 - - WSW 1007,8 8 6 0,0
17.06.2018 21:00:00 15,1 12,4 - - 11 6 - - SW 1007,2 30 6 0,0
17.06.2018 20:00:00 14,8 12,0 - - 21 11 - - SW 1007,5 30 0 0,0
17.06.2018 19:00:00 14,9 11,6 - - 15 8 - - SW 1007,8 30 0 0,0
17.06.2018 18:00:00 14,9 10,8 - - 18 10 - - SW 1007,9 30 0 0,0
17.06.2018 17:00:00 15,0 9,9 - - 21 11 - - SSW 1008,4 25 0 0,0
17.06.2018 16:00:00 16,2 9,2 - - 18 10 - - SSW 1008,5 30 0 0,0
17.06.2018 15:00:00 16,8 9,6 - - 21 11 - - SW 1008,4 28 0 0,0
17.06.2018 14:00:00 16,3 9,0 - - 18 10 - - WSW 1008,8 30 0 0,0
17.06.2018 13:00:00 16,4 10,3 - - 16 9 - - SW 1008,8 30 6 0,0
17.06.2018 12:00:00 15,1 10,0 - - 22 12 - - WSW 1009,1 28 0 0,0
17.06.2018 11:00:00 14,4 10,0 - - 21 11 - - WSW 1009,2 26 0 0,0
17.06.2018 10:00:00 13,0 10,3 14,2 13,2 18 10 - - SW 1009,2 25 0 0,0
17.06.2018 09:00:00 12,8 10,0 - - 13 7 - - WSW 1009,0 26 0 0,0
17.06.2018 08:00:00 11,2 8,8 - - 15 8 - - WSW 1009,2 23 0 0,0
17.06.2018 07:00:00 10,5 7,9 - - 13 7 - - SW 1009,0 22 12 0,0
17.06.2018 06:00:00 9,1 7,7 - - 4 2 - - WSW 1008,9 20 30 0,0
17.06.2018 05:00:00 7,6 6,5 - - 11 6 - - SW 1008,7 22 0 0,0
17.06.2018 04:00:00 7,7 6,6 - - 15 8 - - SW 1008,6 22 0 0,0
17.06.2018 03:00:00 7,9 6,7 - - 13 7 - - WSW 1008,7 22 0 0,0
17.06.2018 02:00:00 8,0 6,8 - - 15 8 - - SW 1008,5 26 0 0,0
17.06.2018 01:00:00 8,2 6,8 - - 13 7 - - WSW 1008,4 24 - 0,0
17.06.2018 00:00:00 8,9 7,2 - - 13 7 - - WSW 1007,9 26 0 0,0
16.06.2018 23:00:00 9,6 7,5 - - 15 8 - - SW 1007,5 27 0 0,0
16.06.2018 22:00:00 10,6 8,1 - - 13 7 - - WSW 1007,0 27 42 0,0
16.06.2018 21:00:00 12,0 7,9 - - 15 8 - - WSW 1006,6 30 42 0,0
16.06.2018 20:00:00 13,3 10,2 - - 15 8 - - WSW 1006,2 29 24 0,2
16.06.2018 19:00:00 10,8 9,0 - - 11 6 - - WSW 1006,4 10 6 0,8
16.06.2018 18:00:00 13,5 11,7 - - 15 8 - - WSW 1005,7 28 6 0,0
16.06.2018 17:00:00 11,1 9,6 - - 16 9 - - W 1005,4 14 0 0,6
16.06.2018 16:00:00 13,6 10,8 - - 16 9 - - W 1005,3 24 0 0,6
16.06.2018 15:00:00 12,2 11,0 - - 11 6 - - WSW 1005,6 1,7 0 4,6
16.06.2018 14:00:00 14,2 11,2 - - 16 9 - - SSE 1005,2 7 6 0,0
16.06.2018 13:00:00 13,9 11,7 - - 11 6 - - SE 1006,1 25 0 0,4
16.06.2018 12:00:00 12,5 10,7 - - 11 6 - - SE 1007,1 13 0 0,0
16.06.2018 11:00:00 11,7 10,4 - - 9 5 - - SE 1007,6 13 0 2,2
16.06.2018 10:00:00 12,5 9,4 14,5 13,2 9 5 - - S 1008,0 8 0 0,0
16.06.2018 09:00:00 13,1 8,1 - - 13 7 - - SSW 1008,1 30 0 0,0
16.06.2018 08:00:00 12,6 8,7 - - 4 2 - - SSE 1008,5 24 0 0,0
16.06.2018 07:00:00 12,3 8,8 - - 5 3 - - SSE 1008,8 23 0 0,0
16.06.2018 06:00:00 12,4 8,6 - - 11 6 - - SSE 1009,0 24 6 0,0
16.06.2018 05:00:00 11,3 8,2 - - 8 4 - - S 1009,5 24 0 0,0
16.06.2018 04:00:00 10,4 7,9 - - 8 4 - - SSW 1010,2 24 0 0,0
16.06.2018 03:00:00 10,4 7,9 - - 5 3 - - SSE 1010,7 23 0 0,0
16.06.2018 02:00:00 10,1 7,9 - - 2 1 - - SE 1011,1 30 0 0,0
16.06.2018 01:00:00 11,4 8,5 - - 0 0 - - N 1011,5 30 - 0,0
16.06.2018 00:00:00 11,5 7,9 - - 8 4 - - SSW 1011,7 27 0 0,0
15.06.2018 23:00:00 11,2 8,1 - - 9 5 - - SSW 1012,1 30 0 0,0
15.06.2018 22:00:00 11,2 7,7 - - 11 6 - - SW 1012,1 40 0 0,0

tt = temperature
td = dewpoint
tt -20cm = temperature -20cm
tt -100cm = temperature -100cm
ff = wind speed
fx = gusts
dd = wind direction
ppp = reduced air pressure
vv = visibility
sd = sunshine duration
rr = precipitation

Next stations